Olathe, KS

6:05 AM CDT on March 24, 2017 (GMT -0500)
Johnson County Executive

Weather History for KOJC - June, 2013

Change the Weather History Date:

Saturday, June 22, 2013

  Actual Average Record
Temperature  
Mean Temperature 81 °F 75 °F  
Max Temperature 89 °F 84 °F 98 °F (1988)
Min Temperature 72 °F 66 °F 52 °F (1958)
Degree Days  
Heating Degree Days 0 0  
Month to date heating degree days 14 6  
Since 1 June heating degree days 14 6  
Since 1 July heating degree days 5099 4932  
Cooling Degree Days 16 10  
Month to date cooling degree days 164 171  
Year to date cooling degree days 265 275  
Since 1 June cooling degree days 164 171  
Growing Degree Days 31 (Base 50)    
Moisture  
Dew Point 69 °F    
Average Humidity 67    
Maximum Humidity 84    
Minimum Humidity 50    
Precipitation  
Precipitation 0.00 in 0.20 in 3.55 in (1969)
Month to date precipitation 3.65 4.57  
Year to date precipitation 21.58 19.31  
Sea Level Pressure  
Sea Level Pressure 29.91 in    
Wind  
Wind Speed 13 mph (South)    
Max Wind Speed 23 mph    
Max Gust Speed 32 mph    
Visibility 10 miles    
Events      
T = Trace of Precipitation, MM = Missing Value Source: NWS Daily Summary

Daily Weather History Graph

Daily Weather History Graph

Search for Another Location

Airport or City:

Trip Planner

Search our weather history database for the weather conditions in past years. The results will help you decide how hot, cold, wet, or windy it might be!

Date:

Astronomy

Jun. 22, 2013 Rise Set
Actual Time 5:54 AM CDT 8:47 PM CDT
Civil Twilight 5:22 AM CDT 9:19 PM CDT
Nautical Twilight 4:41 AM CDT 10:00 PM CDT
Astronomical Twilight 3:55 AM CDT 10:46 PM CDT
Moon 8:04 PM CDT (6/22) 5:07 AM CDT (6/22)
Length of Visible Light 15h 57m
Length of Day
14h 53m
Waxing Gibbous, 99% of the Moon is Illuminated
Jun 22
Waxing Gibbous
Jun 23
Full
Jun 29
Last Quarter
Jul 8
New
Jul 15
First Quarter

Hourly Weather History & Observations

Time (CDT) Temp. Heat Index Dew Point Humidity Pressure Visibility Wind Dir Wind Speed Gust Speed Precip Events Conditions
12:53 AM 77.0 °F - 69.1 °F 76% 29.94 in 10.0 mi South 10.4 mph - N/A   Clear
1:53 AM 75.9 °F - 69.1 °F 79% 29.92 in 10.0 mi South 11.5 mph - N/A   Clear
2:53 AM 77.0 °F - 68.0 °F 74% 29.90 in 10.0 mi SSW 13.8 mph 24.2 mph N/A   Clear
3:53 AM 75.9 °F - 66.9 °F 74% 29.91 in 10.0 mi SSW 12.7 mph 21.9 mph N/A   Clear
4:53 AM 75.0 °F - 66.9 °F 76% 29.92 in 10.0 mi SW 11.5 mph 16.1 mph N/A   Clear
5:53 AM 73.0 °F - 66.9 °F 81% 29.93 in 9.0 mi South 8.1 mph - N/A   Clear
6:53 AM 73.0 °F - 68.0 °F 84% 29.92 in 8.0 mi South 8.1 mph - N/A   Clear
7:53 AM 75.9 °F - 69.1 °F 79% 29.96 in 9.0 mi South 8.1 mph - N/A   Clear
8:53 AM 79.0 °F - 70.0 °F 74% 29.96 in 9.0 mi South 12.7 mph 19.6 mph N/A   Clear
9:53 AM 81.0 °F 84.4 °F 70.0 °F 69% 29.95 in 9.0 mi South 13.8 mph 20.7 mph N/A   Clear
10:53 AM 82.9 °F 87.5 °F 71.1 °F 67% 29.96 in 9.0 mi South 16.1 mph 21.9 mph N/A   Clear
11:53 AM 86.0 °F 91.5 °F 71.1 °F 61% 29.98 in 9.0 mi South 12.7 mph 19.6 mph N/A   Clear
12:53 PM 87.1 °F 92.0 °F 70.0 °F 57% 29.97 in 10.0 mi SSW 15.0 mph 20.7 mph N/A   Clear
1:53 PM 88.0 °F 93.8 °F 71.1 °F 57% 29.95 in 10.0 mi South 16.1 mph 21.9 mph N/A   Clear
2:00 PM 87.8 °F 92.6 °F 69.8 °F 55% 29.99 in 10.0 mi SSW 13.8 mph 20.7 mph N/A   Partly Cloudy
2:53 PM 89.1 °F 95.0 °F 71.1 °F 55% 29.93 in 10.0 mi South 11.5 mph 21.9 mph N/A   Clear
3:40 PM 87.8 °F 92.6 °F 69.8 °F 55% 29.94 in 10.0 mi South 11.5 mph - N/A   Mostly Cloudy
3:53 PM 89.1 °F 95.0 °F 71.1 °F 55% 29.89 in 10.0 mi South 16.1 mph 21.9 mph N/A   Mostly Cloudy
4:53 PM 88.0 °F 91.4 °F 68.0 °F 51% 29.84 in 10.0 mi South 17.3 mph 28.8 mph N/A   Mostly Cloudy
4:54 PM 87.8 °F 91.4 °F 68.0 °F 52% 29.88 in 10.0 mi South 16.1 mph 28.8 mph N/A   Mostly Cloudy
4:56 PM 87.8 °F 91.4 °F 68.0 °F 52% 29.88 in 10.0 mi South 17.3 mph 28.8 mph N/A   Clear
5:53 PM 87.1 °F 89.9 °F 66.9 °F 51% 29.84 in 10.0 mi SSW 17.3 mph 27.6 mph N/A   Clear
6:38 PM 84.2 °F 86.6 °F 66.2 °F 55% 29.88 in 10.0 mi South 13.8 mph 21.9 mph N/A   Scattered Clouds
6:53 PM 82.9 °F 86.5 °F 69.1 °F 63% 29.85 in 10.0 mi South 10.4 mph 18.4 mph N/A   Scattered Clouds
7:53 PM 82.9 °F 87.0 °F 70.0 °F 65% 29.87 in 9.0 mi SSE 12.7 mph - N/A   Clear
8:53 PM 80.1 °F 82.9 °F 69.1 °F 69% 29.87 in 9.0 mi SSE 11.5 mph - N/A   Clear
9:53 PM 79.0 °F - 69.1 °F 72% 29.89 in 10.0 mi SSE 8.1 mph - N/A   Clear
10:53 PM 79.0 °F - 69.1 °F 72% 29.91 in 10.0 mi SSE 12.7 mph - N/A   Clear
11:53 PM 77.0 °F - 69.1 °F 76% 29.90 in 10.0 mi South 11.5 mph - N/A   Clear